Location: Waco, TX
(31.5480°N, 97.1670°W)
Time: 17:46:25
(UTC-06:00)

ISS - Pass Details

Date: 18 January 2019
Orbit: 404 x 410 km, 51.6° (Epoch: 24 January)

Event Time Altitude Azimuth Distance (km) Brightness Sun altitude
Rises 05:21:22 0° 296° (WNW) 2,335 - -26.7°
Reaches altitude 10° 05:24:00 10° 274° (W) 1,469 - -26.1°
Maximum altitude 05:26:08 16° 233° (SW) 1,149 - -25.7°
Drops below altitude 10° 05:28:16 10° 193° (SSW) 1,462 - -25.2°
Exits shadow 05:29:53 - 176° (S) 1,967 -0.2 -24.9°
Sets 05:30:52 0° 170° (S) 2,316 0.3 -24.7°
